Location: Bois-Colombes
(48.9194°N, 2.2748°E)
Time: 03:03:05
(UTC+00:00)

Daily predictions for brighter satellites

Satellite Brightness Start Highest point End
(mag) Time Altitude Azimuth Time Altitude Azimuth Time Altitude Azimuth
CZ-4C R/B 4.3 03:43:05 29° SSE 03:43:05 29° SSE 03:46:44 10° SSE
Cosmos 2263 Rocket 3.0 04:12:52 44° SE 04:13:45 48° ESE 04:19:05 10° NE
GEOS 3 Rocket 4.1 04:12:25 10° ESE 04:16:45 55° ENE 04:16:45 55° ENE
Cosmos 2034 Rocket 4.5 04:29:07 48° N 04:29:07 48° N 04:33:37 10° N
USA 234 3.7 04:21:18 10° ENE 04:27:44 56° SE 04:30:18 36° SSW
Cosmos 1741 Rocket 4.4 04:30:24 57° NE 04:30:46 59° ENE 04:35:55 10° SE
ATLAS CENTAUR R/B 3.6 04:36:18 19° NNE 04:36:18 19° NNE 04:39:17 10° ENE
Cosmos 2297 Rocket 4.2 04:39:41 15° N 04:39:41 15° N 04:40:58 10° N
Cosmos 2227 4.1 04:41:21 84° W 04:41:27 84° WNW 04:47:16 10° NNE
Cosmos 2227 Rocket 4.2 04:44:29 15° N 04:44:29 15° N 04:45:56 10° N
Cosmos 1092 Rocket 3.8 04:43:00 53° NNW 04:44:33 79° W 04:50:40 10° S
Cosmos 1452 Rocket 3.7 04:43:54 32° S 04:46:22 72° ESE 04:51:40 10° NNE
Timation 1 Rocket 4.5 04:43:58 20° SSW 04:48:10 71° ESE 04:54:08 10° NNE
Cosmos 1850 Rocket 4.0 04:48:20 66° N 04:49:07 84° ENE 04:54:28 10° SSE
Meteor 1-18 Rocket 4.1 04:54:06 37° NNW 04:56:24 88° W 05:01:59 10° S
ALOS 3.3 04:54:00 10° NNE 04:58:32 47° E 05:03:02 10° S
PSLV R/B 4.1 04:56:32 10° NNE 05:00:39 72° ESE 05:04:46 10° S
Cosmos 1943 3.5 05:01:27 46° SW 05:01:27 46° SW 05:06:06 10° S
COSMO-SKYMED 1 2.4 05:02:10 10° S 05:06:30 79° WSW 05:06:31 79° W
SL-23 DEB 4.3 05:09:59 42° SSE 05:09:59 42° SSE 05:13:04 10° ENE
ATLAS 5 CENTAUR R/B 3.6 05:10:50 19° N 05:10:50 19° N 05:14:03 10° NNE
Cosmos 2221 Rocket 3.5 05:13:27 32° N 05:15:30 85° E 05:19:56 10° S
Cosmos 405 4.4 05:17:00 17° NNE 05:19:20 36° ENE 05:22:38 10° SE
MOS 1-B 4.4 05:13:50 10° NNE 05:19:40 83° ESE 05:25:27 10° SSW
Cosmos 1733 Rocket 4.3 05:16:25 10° SSE 05:20:29 42° E 05:24:35 10° NNE
Cosmos 1428 Rocket 4.4 05:14:51 10° NNW 05:21:07 68° W 05:27:22 10° S
PAYLOAD B 4.5 05:17:16 10° NNE 05:22:48 71° ESE 05:28:20 10° S
Helios 1A Rocket 3.8 05:20:52 10° NNE 05:24:48 50° E 05:28:43 10° S
Meteor 1-25 Rocket 4.3 05:20:23 10° SSW 05:25:52 53° WNW 05:31:29 10° N
Okean O Rocket 2.1 05:22:49 10° NNE 05:27:11 60° ESE 05:31:33 10° S
Cosmos 1340 2.5 05:23:31 10° SSW 05:27:16 72° WNW 05:31:03 10° N
Cosmos 1346 Rocket 2.5 05:23:41 10° SSW 05:27:33 80° WNW 05:31:28 10° N
Cosmos 1869 Rocket 3.7 05:28:45 10° SSW 05:32:56 48° WNW 05:37:11 10° N
Cosmos 1500 4.0 05:32:44 10° S 05:36:28 52° E 05:40:12 10° NNE
Cosmos 1515 3.5 05:35:06 33° NNW 05:36:42 72° W 05:40:30 10° S
Cosmos 2026 Rocket 4.2 05:35:00 11° NNW 05:40:39 44° W 05:46:30 10° SSW
Meteor 1-14 Rocket 4.4 05:34:49 10° SSW 05:40:41 59° WNW 05:46:38 10° N
Geosat 4.3 05:36:19 10° S 05:41:08 45° WSW 05:43:10 30° WNW
Meteor 2-4 Rocket 3.5 05:37:12 10° NNW 05:42:42 76° W 05:48:03 10° S
Cosmos 1110 Rocket 4.0 05:39:20 10° SSW 05:44:30 81° ESE 05:49:42 10° NNE
Cosmos 1674 Rocket 3.7 05:43:44 10° N 05:48:05 75° ENE 05:52:24 10° SSE
Meteor 1-19 Rocket 4.4 05:44:21 15° NNW 05:48:34 45° W 05:53:54 10° SSW
ADEOS Rocket 3.5 05:47:14 10° SSE 05:53:57 66° ENE 06:00:00 10° N
SKYMED 2 4.5 05:51:09 10° SSW 05:54:51 27° W 05:55:10 26° W
Cosmos 2279 Rocket 4.0 05:48:45 10° SSW 05:54:53 62° WNW 06:01:05 10° N
GEOS 3 Rocket 4.4 05:51:14 10° S 05:55:44 31° WSW 05:57:52 23° W
Cosmos 2263 Rocket 2.7 05:54:41 20° WSW 05:57:52 34° NW 06:02:57 10° NNE
Cosmos 1486 Rocket 4.4 05:55:03 10° NNW 06:00:20 63° ENE 06:05:33 10° SE
Cosmos 1378 Rocket 3.6 06:01:13 10° N 06:05:40 83° E 06:10:06 10° S
USA 81 4.3 06:01:51 10° N 06:07:09 72° E 06:12:24 10° SSE
CZ-4B DEB 4.4 06:02:43 10° N 06:08:01 48° WNW 06:13:19 10° SW
SJ-7 4.2 06:06:01 10° N 06:10:01 68° WNW 06:13:58 10° SSW
IRIDIUM 103 4.4 06:05:34 10° N 06:10:49 82° E 06:16:03 10° S
USA 234 3.3 06:04:23 10° NE 06:10:50 64° NNW 06:17:17 10° WSW
FENGYUN 3A 3.9 06:07:27 10° N 06:12:35 46° WNW 06:17:42 10° SW
SL-24 R/B 4.3 06:10:11 10° S 06:14:20 46° W 06:18:27 10° NNW
Cosmos 1833 Rocket 3.9 06:09:08 10° NNW 06:14:23 38° NE 06:19:36 10° ESE
Cosmos 332 Rocket 3.7 06:10:13 10° SSW 06:15:06 70° WNW 06:20:02 10° NNE
ATLAS CENTAUR R/B 1.4 06:12:30 15° NW 06:15:56 81° NE 06:19:52 10° SE
Cosmos 1484 Rocket 4.4 06:14:22 10° NNW 06:16:05 16° NW 06:16:05 16° NW
Cosmos 1666 3.0 06:16:45 10° S 06:20:31 69° E 06:24:18 10° NNE
CZ-4 R/B 4.0 06:19:29 10° NE 06:22:37 23° E 06:25:47 10° SSE
SMAP 3.1 06:20:01 10° NNE 06:24:42 85° ESE 06:29:21 10° SSW
Cosmos 1655 Rocket 4.4 06:21:32 10° NNW 06:27:15 40° W 06:32:57 10° SSW
COSMOS 2406 3.3 06:22:58 10° NNW 06:28:43 80° ENE 06:34:24 10° SSE
IRIDIUM 106 4.3 06:23:54 10° N 06:29:07 72° W 06:34:19 10° S
Cosmos 1844 Rocket 2.6 06:23:44 10° SW 06:29:18 73° WNW 06:34:54 10° NNE
SAR-Lupe-2 4.0 06:26:02 10° SSE 06:29:35 64° ENE 06:33:10 10° N
Cosmos 44 3.6 06:27:19 10° WSW 06:31:42 40° NW 06:35:56 10° NNE
CZ-4B R/B 3.5 06:26:55 10° N 06:32:16 46° WNW 06:37:38 10° SW
Cosmos 1844 3.7 06:27:07 10° SSW 06:32:55 84° WNW 06:38:44 10° NNE
Radarsat Rocket 4.2 06:26:59 10° NNE 06:33:10 71° WNW 06:40:07 10° SSW
Cosmos 2292 Rocket 4.4 06:28:09 10° NNW 06:34:58 65° W 06:40:03 10° S
ALOS 3.3 06:31:56 10° N 06:35:43 25° WNW 06:39:29 10° WSW
Cosmos 371 Rocket 3.7 06:31:11 10° SW 06:35:44 39° WNW 06:40:20 10° N
Cosmos 1908 Rocket 3.5 06:32:35 10° SSW 06:37:03 79° W 06:41:32 10° N
Cosmos 1302 Rocket 4.0 06:34:24 10° SSW 06:39:42 74° WNW 06:45:01 10° NNE
Cosmos 1536 3.1 06:38:33 10° SSW 06:42:28 46° WNW 06:46:24 10° N
Cosmos 1503 Rocket 4.2 06:38:23 10° NNW 06:43:44 80° ENE 06:49:05 10° SSE
Feng Yun 1-1 Rocket 4.3 06:38:11 10° NNE 06:43:48 83° WNW 06:49:32 10° SSW
Cosmos 389 Rocket 3.6 06:40:25 10° N 06:43:49 44° ENE 06:47:08 10° SSE
Cosmos 2098 Rocket 4.3 06:41:12 10° N 06:45:10 47° ENE 06:50:09 10° SSE
H-2A R/B 2.9 06:43:26 10° N 06:47:03 47° WNW 06:50:42 10° SW
Cosmos 968 Rocket 3.5 06:43:05 10° NNW 06:48:16 86° WSW 06:53:24 10° SSE
IRS-1C Rocket 4.1 06:45:53 10° N 06:51:06 64° WNW 06:56:17 10° SSW
CZ-2C R/B 3.8 06:48:20 10° SE 06:53:16 42° ENE 06:58:08 10° N
Cosmos 1743 3.0 06:50:06 10° S 06:53:52 72° E 06:57:42 10° NNE
Cosmos 1354 Rocket 4.1 06:50:30 10° NNW 06:55:50 90° N 07:01:10 10° SSE
ATLAS 5 CENTAUR R/B 3.8 06:53:24 10° NNW 06:56:52 18° N 07:00:39 10° NE
Cosmos 2082 Rocket 3.0 06:52:09 10° NNW 06:57:40 51° NE 07:03:07 10° SE
Cosmos 1733 Rocket 4.2 06:55:08 10° WSW 06:58:29 22° WNW 07:01:52 10° NNW
Helios 1A Rocket 4.3 06:56:50 10° NNW 06:59:39 19° WNW 07:02:28 10° WSW
